Regional Weather Roundup
Issued by NWS

Home | Current Version | Previous Version | Text Only | Print | Product List | Glossary On
Versions: 1 2 3 4 5 6 7 8 9 10 11 12 13 14 15 16 17 18 19 20 21 22 23 24 25 26 27 28 29 30 31 32 33 34 35 36 37 38 39 40 41 42 43 44 45 46 47 48 49 50
000
ASUS44 KLUB 260901
RWRTX
WEST TEXAS WEATHER ROUNDUP
NATIONAL WEATHER SERVICE LUBBOCK TX
400 AM CDT TUE JUL 26 2016

NOTE: "FAIR" INDICATES FEW OR NO CLOUDS BELOW 12,000 FEET WITH NO
SIGNIFICANT WEATHER AND/OR OBSTRUCTIONS TO VISIBILITY.

TXZ004-006>008-010-012-014-016-OKZ002-261000-
TEXAS PANHANDLE/OKLAHOMA PANHANDLE

CITY           SKY/WX    TMP DP  RH WIND       PRES   REMARKS
AMARILLO       CLEAR     69  59  70 W5        30.13F
BORGER         PTCLDY    75  61  61 SW5       30.09F
CANADIAN       CLEAR     74  70  87 E3        30.06R
DALHART        CLEAR     67  61  81 W8        30.15F
DUMAS          MOCLDY    68  61  77 W5        30.13F
GUYMON         CLEAR     71  66  84 E7        30.10F
HEREFORD       PTCLDY    67  63  87 N5        30.16S
PAMPA          PTCLDY    73  67  81 E9        30.11S
PERRYTON       PTCLDY    73  69  90 E8        30.10S
$$

TXZ026-029-035-045-048-261000-
SOUTHERN PANHANDLE/SOUTH PLAINS/ROLLING PLAINS

CITY           SKY/WX    TMP DP  RH WIND       PRES   REMARKS
CHILDRESS      CLOUDY    80  68  66 SE6       30.01F
SEMINOLE       CLOUDY    74  60  62 NE9       30.12R
LUBBOCK        MOCLDY    73  60  63 N5        30.11S
PLAINVIEW      CLEAR     69  61  76 CALM      30.10F
SNYDER           N/A     77  66  68 CALM      30.04S
$$

TXZ052-054-060>062-072-078-127-140-154-169-261000-
PERMIAN BASIN/CONCHO VALLEY/BIG COUNTRY/EDWARDS PLATEAU

CITY           SKY/WX    TMP DP  RH WIND       PRES   REMARKS
ABILENE        CLEAR     75  67  76 CALM      29.99F
BIG SPRING     CLOUDY    80  65  60 CALM      30.05S
JUNCTION       CLEAR     72  68  87 CALM      29.98R
MIDLAND        CLOUDY    82  62  50 E8        30.03R
ODESSA         CLOUDY    82  60  47 E8        30.05R
SAN ANGELO     CLEAR     73  66  78 E5        29.98S
SONORA         CLEAR     75  68  78 CALM      30.02S
SWEETWATER     CLEAR     75  66  73 CALM      30.05R
WINK           CLOUDY    82  58  43 NE6       30.00R
$$

TXZ055-058-074-075-080-082-261000-
FAR WEST/SOUTHWEST MOUNTAINS/TRANS PECOS

CITY           SKY/WX    TMP DP  RH WIND       PRES   REMARKS
ALPINE         CLEAR     71  53  54 CALM      30.16S
DRYDEN           N/A     82  65  56 E7        29.96R
EL PASO        MOCLDY    83  58  42 NE20      30.07R
FORT STOCKTON  CLEAR     79  59  50 SE8       30.00S
GUADALUPE PASS CLEAR     74  56  53 NE25      30.20F
MARFA          CLEAR     66  54  65 CALM      30.15S
PECOS          CLEAR     80  58  48 NE6       29.98R
PRESIDIO       FAIR      85  56  37 NE6       29.97S
$$

TXZ014-016-019-021>030-083-261000
TEXAS TECH WEST TEXAS MESONET/TEXAS PANHANDLE/NORTHERN SOUTH PLAINS

CITY           SKY/WX    TMP DP  RH WIND       PRES   REMARKS
ABERNATHY 5ENE   N/A     68  62  81 N6        30.14S
AMARILLO 9NNE    N/A     66  58  77 SW3       30.13S
AMARILLO 7SSE    N/A     64  59  84 W5        30.15F
AMHERST 1NE      N/A     69  63  80 N6        30.14F
BOOTLEG 11WNW    N/A     66  61  85 NW6       30.22S
CANADIAN 6E      N/A     74  69  86 E9        30.06S
CAPROCK CYN SP   N/A     73  65  74 W6        30.08F
CHILDRESS 2NNE   N/A     76  68  76 E7        30.02F
CLARENDON 2WSW   N/A     70  65  83 SE2       30.09S
CLAUDE 12SW      N/A     69  62  76 NW6       30.12F
DIMMITT 2NE      N/A     65  62  91 NW5       30.17S
FLOYDADA 2NNE    N/A     69  61  74 NW6       30.10F
FRIONA 2NE       N/A     67  62  84 W5        30.18S
GOODLETT 3W      N/A     78  69  73 E7        30.00S
HART 3N          N/A     64  61  89 NW3       30.15F
HEREFORD 2NW     N/A     66  61  82 NW8       30.18S
MCLEAN 1E        N/A     73  66  78 NE7       30.08S
MEMPHIS 1NE      N/A     76  67  74 NE1       30.04S
MULESHOE 2SSW    N/A     68  62  81 W7        30.16S
OLTON 6S         N/A     68  62  78 NW5       30.14F
PALO DURO SP     N/A     69  61  75 W9        30.14F
PAMPA 2E         N/A     70  66  87 E8        30.11S
PLAINVIEW 1S     N/A     71  63  76 NW3       30.13S
SILVERTON 7ESE   N/A     67  62  84 W2        30.10S
TULIA 2ENE       N/A     66  63  89 NW8       30.13F
TURKEY 2WSW      N/A     74  65  73 W3        30.06F
UMBARGER 3NNE    N/A     62  59  90 W7        30.17R
$$

TXZ033>036-039>041-045>048-261000
TEXAS TECH WEST TEXAS MESONET/SOUTH PLAINS

CITY           SKY/WX    TMP DP  RH WIND       PRES   REMARKS
AIKEN 3WSW       N/A     69  63  82 NW2       30.13F
ANDREWS 2NE      N/A     80  59  48 N18       30.11R
ANTON 6SSW       N/A     73  63  72 NW6       30.13S
BROWNFIELD 2S    N/A     73  60  62 N10       30.13R
DENVR CTY 7WNW   N/A     69  59  71 N8        30.14S
GAIL 2ESE        N/A     76  68  77 NW2       30.07R
LAMESA 2SE       N/A     78  61  54 N12G17    30.10S
LEVELLAND 4S     N/A     71  60  66 N8        30.14S
LUBBOCK 3WNW     N/A     74  60  61 N5        30.13S
MORTON 1ENE      N/A     72  60  67 W9        30.14F
ODONNELL 1N      N/A     76  59  54 N10       30.11S
PLAINS 3N        N/A     70  60  70 NW13      30.14S
RALLS 1SE        N/A     73  62  67 N9        30.12S
REESE CENTER     N/A     71  62  73 NE5       30.14S
SEAGRAVES 1SW    N/A     72  61  68 N8        30.13S
SEMINOLE 2NNE    N/A     74  59  61 N12       30.12S
SLATON 2NE       N/A     76  59  56 N10       30.11F
SNYDER 3E        N/A     76  65  70 SE3       30.04S
SUNDOWN 8SW      N/A     69  60  73 N3        30.14S
TAHOKA 3NNE      N/A     75  60  60 N9        30.11S
WOLFFORTH 6SSW   N/A     74  60  61 N8        30.13S
$$

TXZ031-032-036>038-042>044-261000-
TEXAS TECH WEST TEXAS MESONET/ROLLING PLAINS

CITY           SKY/WX    TMP DP  RH WIND       PRES   REMARKS
ASPERMONT 3NE    N/A     76  65  67 SE5       30.00S
FLUVANNA 3WNW    N/A     76  66  71 W3        30.08R
GRAHAM 5SSW      N/A     76  61  59 N8        30.09F
GUTHRIE 10WSW    N/A     78  65  64 CALM      30.02S
HASKELL 1NW      N/A     77  64  64 S5        29.99S
JAYTON 1SSE      N/A     79  65  60 S5        30.02S
KNOX CITY 3NW    N/A     78  64  62 S3        29.99F
LK A HENRY 1NW   N/A     79  64  60 SW3       30.05S
NORTHFIELD 1S    N/A     72  68  86 W5        30.04S
PADUCAH 10SW     N/A     77  68  72 SW5       30.03S
POST 1NE         N/A     77  64  65 W5        30.07S
RRING SPRGS 3N   N/A     73  65  77 W7        30.07F
SEYMOUR 3NW      N/A     77  66  68 S1        29.98S
SPUR 1W          N/A     77  65  67 CALM      30.04S
WEINERT 2NNE     N/A     77  66  68 S2        29.99S
WHITE RVR 6NE    N/A     77  64  63 W3        30.08S
$$

TXZ052-054-060>062-072-078-127-140-154-169-261000-
TEXAS TECH WEST TEXAS MESONET/PERMIAN BASIN/
CONCHO VALLEY/BIG COUNTRY/EDWARDS PLATEAU

CITY           SKY/WX    TMP DP  RH WIND       PRES   REMARKS
COYANOSA 2N      N/A     78  62  58 E6        29.99S
JUNCTION 1SSW    N/A     71  69  95 W2        30.00R
MERTZON 3NNE     N/A     73  65  75 NW1       30.01S
SAN ANGELO 7NW   N/A     74  63  69 NE2       30.00S
STRLNG CT 4WSW   N/A     73  64  73 CALM      30.03R
ST LAWRNCE 5SW   N/A     75  63  65 E6        30.03S
SWEETWATR 11SW   N/A     73  67  80 S5        30.05R
WALL 1E          N/A     73  63  71 E3        30.00S
$$

TXZ055-058-074-075-080-082-261000-
TEXAS TECH WEST TEXAS MESONET/FAR WEST/SOUTHWEST MOUNTAINS/TRANS PECOS

CITY           SKY/WX    TMP DP  RH WIND       PRES   REMARKS
PRSMN GAP BBNP   N/A     83  58  43 N10       29.99S
GUADLPE MTN NP   N/A     74  53  47 N8G15     30.23S
$$




USA.gov is the U.S. government's official web portal to all federal, state and local government web resources and services.